Previsão horária em Céret

Hoje, 29 Julho, Quinta-feira

Tempo Temperatura Precipitação Vento Pressão Humidade
00:00 +19°C° 0 mm 2 m/s 732 mmHg 84%
01:00 +19°C° 0 mm 2 m/s 732 mmHg 84%
02:00 +19°C° 0 mm 2 m/s 732 mmHg 84%
03:00 +19°C° 0 mm 2 m/s 732 mmHg 83%
04:00 +21°C° 0 mm 1 m/s 732 mmHg 79%
05:00 +22°C° 0 mm 1 m/s 732 mmHg 75%
06:00 +23°C° 0 mm 1 m/s 732 mmHg 72%
07:00 +25°C° 0 mm 1 m/s 732 mmHg 65%
08:00 +27°C° 0 mm 1 m/s 732 mmHg 57%
09:00 +29°C° 0 mm 2 m/s 732 mmHg 50%
10:00 +30°C° 0 mm 2 m/s 732 mmHg 46%
11:00 +33°C° 0 mm 3 m/s 731 mmHg 42%
12:00 +34°C° 0 mm 4 m/s 731 mmHg 37%
13:00 +34°C° 0 mm 4 m/s 731 mmHg 37%
14:00 +35°C° 0 mm 4 m/s 730 mmHg 36%
15:00 +35°C° 0 mm 4 m/s 730 mmHg 35%
16:00 +33°C° 0 mm 4 m/s 730 mmHg 42%
17:00 +31°C° 0 mm 3 m/s 729 mmHg 48%
18:00 +29°C° 0 mm 3 m/s 729 mmHg 54%
19:00 +27°C° 0 mm 2 m/s 729 mmHg 60%
20:00 +25°C° 0 mm 2 m/s 730 mmHg 66%
21:00 +24°C° 0 mm 2 m/s 730 mmHg 71%
22:00 +23°C° 0 mm 1 m/s 730 mmHg 71%
23:00 +23°C° 0 mm 1 m/s 730 mmHg 70%

Amanhã, 30 Julho, Sexta-feira

Tempo Temperatura Precipitação Vento Pressão Humidade
00:00 +23°C° 0 mm 1 m/s 730 mmHg 69%
01:00 +22°C° 0 mm 1 m/s 730 mmHg 71%
02:00 +22°C° 0 mm 1 m/s 730 mmHg 73%
03:00 +22°C° 0 mm 1 m/s 729 mmHg 75%
04:00 +22°C° 0 mm 1 m/s 729 mmHg 73%
05:00 +23°C° 0 mm 1 m/s 730 mmHg 71%
06:00 +23°C° 0 mm 1 m/s 730 mmHg 69%
07:00 +25°C° 0 mm 1 m/s 730 mmHg 62%
08:00 +27°C° 0 mm 2 m/s 730 mmHg 56%
09:00 +29°C° 0 mm 2 m/s 730 mmHg 50%
10:00 +30°C° 0 mm 3 m/s 730 mmHg 47%
11:00 +31°C° 0 mm 3 m/s 730 mmHg 45%
12:00 +33°C° 0 mm 4 m/s 730 mmHg 42%
13:00 +32°C° 0 mm 4 m/s 729 mmHg 43%
14:00 +32°C° 0 mm 4 m/s 729 mmHg 44%
15:00 +32°C° 0 mm 4 m/s 729 mmHg 45%
16:00 +29°C° 0 mm 4 m/s 729 mmHg 50%
17:00 +28°C° 0 mm 3 m/s 730 mmHg 54%
18:00 +27°C° 0 mm 3 m/s 730 mmHg 59%
19:00 +25°C° 0 mm 3 m/s 730 mmHg 65%
20:00 +22°C° 0 mm 3 m/s 730 mmHg 71%
21:00 +21°C° 0 mm 3 m/s 730 mmHg 76%
22:00 +21°C° 0 mm 3 m/s 730 mmHg 76%
23:00 +20°C° 0 mm 3 m/s 730 mmHg 77%

Depois de amanhã, 31 Julho, Sábado

Tempo Temperatura Precipitação Vento Pressão Humidade
00:00 +20°C° 0 mm 3 m/s 730 mmHg 77%
01:00 +19°C° 0 mm 3 m/s 730 mmHg 78%
02:00 +19°C° 0 mm 3 m/s 729 mmHg 80%
03:00 +19°C° 0 mm 3 m/s 729 mmHg 82%
04:00 +19°C° 0 mm 2 m/s 729 mmHg 80%
05:00 +20°C° 0 mm 2 m/s 729 mmHg 79%
06:00 +20°C° 0 mm 2 m/s 729 mmHg 77%
07:00 +23°C° 0 mm 2 m/s 729 mmHg 70%
08:00 +25°C° 0 mm 2 m/s 729 mmHg 62%
09:00 +27°C° 0 mm 3 m/s 729 mmHg 55%
10:00 +27°C° 0.1 mm 3 m/s 729 mmHg 54%
11:00 +28°C° 0.1 mm 3 m/s 728 mmHg 53%
12:00 +28°C° 0.1 mm 3 m/s 728 mmHg 52%
13:00 +27°C° 0.4 mm 3 m/s 728 mmHg 58%
14:00 +25°C° 0.4 mm 3 m/s 728 mmHg 63%
15:00 +24°C° 0.4 mm 3 m/s 728 mmHg 69%
16:00 +22°C° 0.5 mm 4 m/s 728 mmHg 71%
17:00 +21°C° 0.5 mm 4 m/s 728 mmHg 73%
18:00 +20°C° 0.5 mm 5 m/s 728 mmHg 74%
19:00 +19°C° 1.4 mm 5 m/s 728 mmHg 77%
20:00 +17°C° 1.4 mm 4 m/s 728 mmHg 80%
21:00 +15°C° 1.4 mm 4 m/s 729 mmHg 83%
22:00 +15°C° 0.9 mm 4 m/s 729 mmHg 83%
23:00 +15°C° 0.9 mm 4 m/s 729 mmHg 84%

1 Agosto, Domingo

Tempo Temperatura Precipitação Vento Pressão Humidade
00:00 +16°C° 0.9 mm 3 m/s 730 mmHg 85%
01:00 +16°C° 0 mm 3 m/s 729 mmHg 84%
02:00 +16°C° 0 mm 3 m/s 729 mmHg 83%
03:00 +16°C° 0 mm 3 m/s 729 mmHg 82%
04:00 +16°C° 0 mm 3 m/s 729 mmHg 80%
05:00 +16°C° 0 mm 3 m/s 730 mmHg 79%
06:00 +16°C° 0 mm 3 m/s 730 mmHg 78%
07:00 +18°C° 0 mm 3 m/s 730 mmHg 69%
08:00 +20°C° 0 mm 3 m/s 730 mmHg 60%
09:00 +22°C° 0 mm 3 m/s 731 mmHg 52%
10:00 +24°C° 0 mm 3 m/s 731 mmHg 50%
11:00 +24°C° 0 mm 3 m/s 731 mmHg 48%
12:00 +25°C° 0 mm 3 m/s 731 mmHg 46%
13:00 +25°C° 0.1 mm 3 m/s 731 mmHg 47%
14:00 +25°C° 0.1 mm 2 m/s 731 mmHg 48%
15:00 +25°C° 0.1 mm 2 m/s 731 mmHg 50%
16:00 +24°C° 0.1 mm 2 m/s 731 mmHg 54%
17:00 +23°C° 0.1 mm 2 m/s 731 mmHg 58%
18:00 +23°C° 0.1 mm 2 m/s 731 mmHg 62%
19:00 +20°C° 0 mm 2 m/s 731 mmHg 66%
20:00 +19°C° 0 mm 2 m/s 732 mmHg 70%
21:00 +18°C° 0 mm 2 m/s 732 mmHg 74%
22:00 +17°C° 0 mm 2 m/s 732 mmHg 75%
23:00 +17°C° 0 mm 2 m/s 732 mmHg 76%

2 Agosto, Segunda-feira

Tempo Temperatura Precipitação Vento Pressão Humidade
00:00 +17°C° 0 mm 2 m/s 732 mmHg 77%
01:00 +16°C° 0 mm 2 m/s 732 mmHg 78%
02:00 +16°C° 0 mm 2 m/s 732 mmHg 79%
03:00 +16°C° 0 mm 2 m/s 732 mmHg 79%
04:00 +17°C° 0 mm 2 m/s 732 mmHg 77%
05:00 +17°C° 0 mm 2 m/s 732 mmHg 75%
06:00 +19°C° 0 mm 1 m/s 732 mmHg 73%
07:00 +21°C° 0 mm 1 m/s 733 mmHg 65%
08:00 +23°C° 0 mm 1 m/s 733 mmHg 57%
09:00 +26°C° 0 mm 1 m/s 733 mmHg 48%
10:00 +27°C° 0 mm 2 m/s 733 mmHg 46%
11:00 +28°C° 0 mm 3 m/s 732 mmHg 44%
12:00 +29°C° 0 mm 3 m/s 732 mmHg 42%
13:00 +28°C° 0 mm 3 m/s 732 mmHg 44%
14:00 +28°C° 0 mm 3 m/s 732 mmHg 46%
15:00 +28°C° 0 mm 3 m/s 732 mmHg 49%
16:00 +27°C° 0 mm 3 m/s 731 mmHg 53%
17:00 +26°C° 0 mm 3 m/s 731 mmHg 58%
18:00 +25°C° 0 mm 3 m/s 731 mmHg 63%
19:00 +24°C° 0 mm 2 m/s 731 mmHg 68%
20:00 +21°C° 0 mm 2 m/s 731 mmHg 74%
21:00 +20°C° 0 mm 2 m/s 731 mmHg 79%
22:00 +20°C° 0 mm 2 m/s 731 mmHg 80%
23:00 +20°C° 0 mm 2 m/s 731 mmHg 80%

3 Agosto, Terça-feira

Tempo Temperatura Precipitação Vento Pressão Humidade
00:00 +19°C° 0 mm 2 m/s 731 mmHg 80%
01:00 +19°C° 0 mm 2 m/s 730 mmHg 81%
02:00 +19°C° 0 mm 2 m/s 730 mmHg 82%
03:00 +19°C° 0 mm 2 m/s 730 mmHg 82%
04:00 +19°C° 0 mm 2 m/s 730 mmHg 80%
05:00 +21°C° 0 mm 1 m/s 730 mmHg 77%
06:00 +21°C° 0 mm 1 m/s 730 mmHg 74%
07:00 +23°C° 0 mm 2 m/s 731 mmHg 67%
08:00 +25°C° 0 mm 2 m/s 731 mmHg 59%
09:00 +26°C° 0 mm 2 m/s 731 mmHg 52%
10:00 +27°C° 0 mm 3 m/s 731 mmHg 51%
11:00 +28°C° 0 mm 3 m/s 731 mmHg 49%
12:00 +29°C° 0 mm 3 m/s 731 mmHg 47%
13:00 +28°C° 0 mm 3 m/s 731 mmHg 48%
14:00 +28°C° 0 mm 3 m/s 731 mmHg 50%
15:00 +28°C° 0 mm 3 m/s 731 mmHg 51%
16:00 +27°C° 0 mm 2 m/s 731 mmHg 54%
17:00 +26°C° 0 mm 2 m/s 731 mmHg 57%
18:00 +26°C° 0 mm 2 m/s 731 mmHg 59%
19:00 +24°C° 0 mm 2 m/s 731 mmHg 63%
20:00 +23°C° 0 mm 2 m/s 731 mmHg 68%
21:00 +21°C° 0 mm 2 m/s 731 mmHg 72%
22:00 +20°C° 0.1 mm 2 m/s 731 mmHg 74%
23:00 +20°C° 0.1 mm 2 m/s 731 mmHg 76%
Mostrar mais

Necessitamos do seu Consentimento

A Meteoprog e os seus Fornecedores de Serviços podem armazenar e aceder a dados pessoais como cookies, identificadores do dispositivo ou outras tecnologias semelhantes existentes no seu dispositivo e processar estes dados para personalizar conteúdos e anúncios, assim como funcionalidades nas redes sociais e análise de tráfego.

  • Armazenar e/ou aceder a informações no seu dispositivo

    Os cookies, identificadores do dispositivo ou outras informações podem ser armazenados ou acedidos no seu dispositivo, para os fins acima indicados.

  • Anúncios e conteúdos personalizados, medição de anúncios e conteúdos, dados sobre o público-alvo e desenvolvimento de produtos

    Os anúncios e os conteúdos podem ser personalizados com base num perfil. Podem ser adicionados dados adicionais para uma maior personalização dos anúncios e dos conteúdos. A eficácia dos anúncios e dos conteúdos pode ser medida. Podem ser obtidas informações sobre o público que visualizou os anúncios e os conteúdos. Estes dados podem ser usados para desenvolver ou melhorar sistemas, softwares ou a experiência do utilizador.

Ao clicar em "Eu concordo”, permitirá o uso de cookies, identificadores do dispositivo e web beacons mencionados ou outras tecnologias semelhantes. As configurações do navegador do seu dispositivo podem ser alteradas.

Para certos fins, podem ser invocados interesses legítimos ao invés de consentimento. Pode ler mais informação sobre este assunto na nossa Política de Privacidade e Cookies.